TimeEST,TemperatureF,Dew PointF,Humidity,Sea Level PressureIn,VisibilityMPH,Wind Direction,Wind SpeedMPH,Gust SpeedMPH,PrecipitationIn,Events,Conditions,WindDirDegrees,DateUTC
12:15 AM,28.6,21.7,76,30.30,10.0,West,11.5,-,N/A,,Clear,260,2013-01-05 05:15:00
12:35 AM,28.9,21.6,74,30.31,10.0,WSW,9.2,-,N/A,,Clear,250,2013-01-05 05:35:00
12:55 AM,28.9,21.6,74,30.32,10.0,SW,9.2,-,N/A,,Clear,220,2013-01-05 05:55:00
1:15 AM,29.3,21.7,73,30.32,10.0,WSW,15.0,23.0,N/A,,Scattered Clouds,240,2013-01-05 06:15:00
1:35 AM,29.1,21.7,74,30.33,10.0,WSW,13.8,21.9,N/A,,Scattered Clouds,240,2013-01-05 06:35:00
1:55 AM,28.8,22.1,76,30.33,10.0,WSW,17.3,25.3,N/A,,Scattered Clouds,250,2013-01-05 06:55:00
2:15 AM,28.6,22.1,77,30.31,10.0,West,21.9,-,N/A,,Clear,270,2013-01-05 07:15:00
2:35 AM,28.0,22.1,78,30.32,10.0,West,17.3,-,N/A,,Clear,260,2013-01-05 07:35:00
2:55 AM,28.9,22.1,76,30.33,10.0,West,20.7,24.2,N/A,,Clear,260,2013-01-05 07:55:00
3:15 AM,28.2,22.1,78,30.32,10.0,West,20.7,-,N/A,,Clear,260,2013-01-05 08:15:00
3:35 AM,27.5,22.5,81,30.33,10.0,West,19.6,-,N/A,,Clear,260,2013-01-05 08:35:00
3:55 AM,27.3,22.1,81,30.31,10.0,WSW,16.1,-,N/A,,Clear,250,2013-01-05 08:55:00
4:15 AM,27.0,22.5,83,30.31,10.0,WSW,15.0,19.6,N/A,,Clear,250,2013-01-05 09:15:00
4:35 AM,26.6,22.5,84,30.32,10.0,SW,9.2,-,N/A,,Clear,220,2013-01-05 09:35:00
4:55 AM,26.2,22.5,86,30.31,10.0,WSW,11.5,-,N/A,,Clear,240,2013-01-05 09:55:00
5:15 AM,26.4,22.5,85,30.31,10.0,WSW,13.8,-,N/A,,Clear,250,2013-01-05 10:15:00
5:35 AM,26.2,22.3,85,30.31,10.0,WSW,12.7,-,N/A,,Clear,250,2013-01-05 10:35:00
5:55 AM,26.6,22.5,84,30.31,10.0,WSW,12.7,-,N/A,,Clear,240,2013-01-05 10:55:00
6:15 AM,26.1,22.1,85,30.32,10.0,WSW,12.7,-,N/A,,Clear,250,2013-01-05 11:15:00
6:35 AM,26.2,22.3,85,30.32,10.0,WSW,11.5,-,N/A,,Clear,250,2013-01-05 11:35:00
6:55 AM,26.2,22.3,85,30.33,10.0,WSW,10.4,-,N/A,,Clear,240,2013-01-05 11:55:00
7:15 AM,26.1,22.1,85,30.34,10.0,WSW,12.7,-,N/A,,Clear,250,2013-01-05 12:15:00
7:35 AM,25.5,21.9,86,30.36,10.0,WSW,11.5,-,N/A,,Clear,250,2013-01-05 12:35:00
7:55 AM,25.0,21.9,88,30.36,10.0,West,10.4,-,N/A,,Clear,260,2013-01-05 12:55:00
8:15 AM,26.4,22.6,86,30.36,10.0,WSW,8.1,-,N/A,,Clear,240,2013-01-05 13:15:00
8:35 AM,27.1,23.0,84,30.37,10.0,WSW,9.2,-,N/A,,Clear,250,2013-01-05 13:35:00
8:55 AM,29.3,23.4,78,30.36,10.0,SW,5.8,-,N/A,,Clear,230,2013-01-05 13:55:00
9:15 AM,31.1,23.9,75,30.36,10.0,WSW,6.9,-,N/A,,Clear,250,2013-01-05 14:15:00
9:35 AM,31.8,23.5,71,30.35,10.0,WSW,9.2,-,N/A,,Scattered Clouds,240,2013-01-05 14:35:00
9:55 AM,32.7,23.7,69,30.36,10.0,WSW,9.2,-,N/A,,Scattered Clouds,250,2013-01-05 14:55:00
10:15 AM,34.2,23.7,66,30.37,10.0,WSW,10.4,-,N/A,,Scattered Clouds,250,2013-01-05 15:15:00
10:55 AM,37.0,21.4,53,30.35,10.0,SSW,4.6,-,N/A,,Clear,200,2013-01-05 15:55:00
11:15 AM,37.4,20.5,51,30.34,10.0,Calm,Calm,-,N/A,,Clear,0,2013-01-05 16:15:00
12:15 PM,41.4,19.0,41,30.29,10.0,Calm,Calm,-,N/A,,Clear,0,2013-01-05 17:15:00
12:55 PM,43.3,19.0,38,30.26,10.0,NE,5.8,-,N/A,,Clear,50,2013-01-05 17:55:00
1:15 PM,44.1,18.5,36,30.25,10.0,NE,5.8,-,N/A,,Clear,50,2013-01-05 18:15:00
1:35 PM,43.7,19.0,37,30.25,10.0,NNE,4.6,-,N/A,,Clear,30,2013-01-05 18:35:00
1:55 PM,45.5,19.9,36,30.24,10.0,NE,4.6,-,N/A,,Clear,50,2013-01-05 18:55:00
2:15 PM,46.0,19.9,35,30.24,10.0,ENE,5.8,-,N/A,,Clear,60,2013-01-05 19:15:00
2:35 PM,46.6,17.8,32,30.23,10.0,East,6.9,-,N/A,,Clear,80,2013-01-05 19:35:00
2:55 PM,46.6,18.7,33,30.23,10.0,ENE,5.8,-,N/A,,Clear,70,2013-01-05 19:55:00
3:15 PM,46.9,19.2,33,30.23,10.0,ENE,4.6,-,N/A,,Clear,70,2013-01-05 20:15:00
3:35 PM,47.1,19.4,33,30.23,10.0,NE,4.6,-,N/A,,Clear,40,2013-01-05 20:35:00
3:55 PM,46.6,19.6,34,30.22,10.0,NNE,3.5,-,N/A,,Clear,20,2013-01-05 20:55:00
4:15 PM,45.9,19.9,36,30.22,10.0,NNE,3.5,-,N/A,,Clear,20,2013-01-05 21:15:00
4:35 PM,45.5,20.3,37,30.22,10.0,Calm,Calm,-,N/A,,Clear,0,2013-01-05 21:35:00
4:55 PM,44.6,22.3,41,30.22,10.0,Calm,Calm,-,N/A,,Clear,0,2013-01-05 21:55:00
5:15 PM,43.7,21.6,41,30.21,10.0,Calm,Calm,-,N/A,,Clear,0,2013-01-05 22:15:00
6:15 PM,41.0,25.3,54,30.23,10.0,Calm,Calm,-,N/A,,Mostly Cloudy,0,2013-01-05 23:15:00
6:35 PM,40.5,26.6,58,30.23,10.0,Calm,Calm,-,N/A,,Overcast,0,2013-01-05 23:35:00
6:55 PM,39.9,27.5,61,30.22,10.0,SW,3.5,-,N/A,,Overcast,230,2013-01-05 23:55:00
7:15 PM,40.5,27.0,59,30.23,10.0,WSW,5.8,-,N/A,,Unknown,250,2013-01-06 00:15:00
7:35 PM,40.3,27.9,61,30.22,10.0,Calm,Calm,-,N/A,,Light Drizzle,0,2013-01-06 00:35:00
7:55 PM,40.1,28.0,62,30.24,10.0,West,8.1,-,N/A,,Overcast,260,2013-01-06 00:55:00
8:15 PM,40.3,27.9,61,30.23,10.0,SW,3.5,-,N/A,,Overcast,230,2013-01-06 01:15:00
8:35 PM,40.1,27.9,62,30.23,10.0,West,5.8,-,N/A,,Overcast,270,2013-01-06 01:35:00
8:55 PM,39.9,27.7,62,30.21,10.0,SW,3.5,-,N/A,,Scattered Clouds,220,2013-01-06 01:55:00
9:15 PM,39.6,28.0,63,30.22,10.0,West,5.8,-,N/A,,Mostly Cloudy,270,2013-01-06 02:15:00
9:35 PM,39.9,27.3,61,30.22,10.0,West,6.9,-,N/A,,Overcast,260,2013-01-06 02:35:00
9:55 PM,39.7,27.5,62,30.21,10.0,West,8.1,-,N/A,,Mostly Cloudy,260,2013-01-06 02:55:00
10:15 PM,39.9,27.1,60,30.21,10.0,West,10.4,-,N/A,,Drizzle,270,2013-01-06 03:15:00
10:35 PM,38.7,30.0,71,30.23,10.0,West,9.2,-,N/A,,Light Drizzle,260,2013-01-06 03:35:00
10:55 PM,38.3,30.2,73,30.20,7.0,West,6.9,-,N/A,Rain,Light Rain,260,2013-01-06 03:55:00
11:15 PM,37.4,31.6,80,30.21,10.0,West,10.4,-,N/A,Rain,Light Rain,260,2013-01-06 04:15:00
11:35 PM,37.4,31.3,79,30.21,10.0,WSW,12.7,-,N/A,,Overcast,250,2013-01-06 04:35:00
11:55 PM,37.6,30.9,77,30.22,10.0,WSW,11.5,-,N/A,,Overcast,250,2013-01-06 04:55:00